Location: Bay Ridge
(40.6340°N, 74.0146°W)
Time: 08:48:57
(UTC+00:00)

SL-27 R/B - Pass Details

Date: 15 November 2019
Orbit: 420 x 472 km, 74.7° (Epoch: 11 December)

Event Time Altitude Azimuth Distance (km) Brightness Sun altitude
Exits shadow 10:38:03 15° 322° (NW) 1,235 4.2 -12.4°
Drops below altitude 10° 10:39:13 10° 341° (NNW) 1,511 4.7 -12.2°
Sets 10:41:46 0° 2° (N) 2,383 6.0 -11.7°
